Time,TemperatureF,DewpointF,PressureIn,WindDirection,WindDirectionDegrees,WindSpeedMPH,WindSpeedGustMPH,Humidity,HourlyPrecipIn,Conditions,Clouds,dailyrainin,SoftwareType,DateUTC
2017-02-27 00:05:00,30.9,25.8,30.02,WNW,300,9.0,-999.0,81,0.00,,,0.00,Wunderground v.1.15,2017-02-27 05:05:00,
2017-02-27 00:15:00,30.3,24.6,30.02,West,280,8.0,-999.0,79,0.00,,,0.00,Wunderground v.1.15,2017-02-27 05:15:00,
2017-02-27 00:25:00,29.9,23.9,30.03,West,277,10.0,-999.0,78,0.00,,,0.00,Wunderground v.1.15,2017-02-27 05:25:00,
2017-02-27 00:30:00,29.9,24.2,30.03,West,279,10.0,-999.0,79,0.00,,,0.00,Wunderground v.1.15,2017-02-27 05:30:00,
2017-02-27 00:35:00,29.7,23.4,30.04,WNW,285,10.0,-999.0,77,0.00,,,0.00,Wunderground v.1.15,2017-02-27 05:35:00,
2017-02-27 00:40:00,29.5,22.9,30.04,West,280,10.0,-999.0,76,0.00,,,0.00,Wunderground v.1.15,2017-02-27 05:40:00,
2017-02-27 00:50:00,29.3,23.0,30.05,West,276,9.0,-999.0,77,0.00,,,0.00,Wunderground v.1.15,2017-02-27 05:50:00,
2017-02-27 00:55:00,29.0,21.7,30.05,West,277,9.0,-999.0,74,0.00,,,0.00,Wunderground v.1.15,2017-02-27 05:55:00,
2017-02-27 01:00:00,29.0,21.7,30.06,West,259,9.0,-999.0,74,0.00,,,0.00,Wunderground v.1.15,2017-02-27 06:00:00,
2017-02-27 01:05:00,29.0,22.7,30.06,West,260,9.0,-999.0,77,0.00,,,0.00,Wunderground v.1.15,2017-02-27 06:05:00,
2017-02-27 01:15:00,28.5,20.3,30.07,WNW,288,8.0,-999.0,71,0.00,,,0.00,Wunderground v.1.15,2017-02-27 06:15:00,
2017-02-27 01:20:00,28.5,21.3,30.07,West,271,8.0,-999.0,74,0.00,,,0.00,Wunderground v.1.15,2017-02-27 06:20:00,
2017-02-27 01:25:00,28.4,20.2,30.07,West,269,9.0,-999.0,71,0.00,,,0.00,Wunderground v.1.15,2017-02-27 06:25:00,
2017-02-27 01:30:00,28.4,20.2,30.07,West,259,10.0,-999.0,71,0.00,,,0.00,Wunderground v.1.15,2017-02-27 06:30:00,
2017-02-27 01:40:00,28.5,20.6,30.07,West,269,10.0,-999.0,72,0.00,,,0.00,Wunderground v.1.15,2017-02-27 06:40:00,
2017-02-27 01:45:00,28.4,19.9,30.08,West,268,10.0,-999.0,70,0.00,,,0.00,Wunderground v.1.15,2017-02-27 06:45:00,
2017-02-27 01:50:00,28.3,19.8,30.08,West,277,9.0,-999.0,70,0.00,,,0.00,Wunderground v.1.15,2017-02-27 06:50:00,
2017-02-27 01:55:00,28.2,19.0,30.08,West,271,9.0,-999.0,68,0.00,,,0.00,Wunderground v.1.15,2017-02-27 06:55:00,
2017-02-27 02:00:00,28.2,20.0,30.08,WSW,257,9.0,-999.0,71,0.00,,,0.00,Wunderground v.1.15,2017-02-27 07:00:00,
2017-02-27 02:05:00,28.3,20.1,30.08,WNW,287,9.0,-999.0,71,0.00,,,0.00,Wunderground v.1.15,2017-02-27 07:05:00,
2017-02-27 02:15:00,28.2,20.7,30.09,West,272,6.0,-999.0,73,0.00,,,0.00,Wunderground v.1.15,2017-02-27 07:15:00,
2017-02-27 02:20:00,28.1,20.9,30.09,WNW,290,6.0,-999.0,74,0.00,,,0.00,Wunderground v.1.15,2017-02-27 07:20:00,
2017-02-27 02:30:00,27.8,18.6,30.10,West,269,5.0,-999.0,68,0.00,,,0.00,Wunderground v.1.15,2017-02-27 07:30:00,
2017-02-27 02:35:00,27.7,18.8,30.10,West,274,6.0,-999.0,69,0.00,,,0.00,Wunderground v.1.15,2017-02-27 07:35:00,
2017-02-27 02:40:00,27.8,19.9,30.11,West,277,6.0,-999.0,72,0.00,,,0.00,Wunderground v.1.15,2017-02-27 07:40:00,
2017-02-27 02:45:00,27.7,19.5,30.11,West,279,7.0,-999.0,71,0.00,,,0.00,Wunderground v.1.15,2017-02-27 07:45:00,
2017-02-27 02:55:00,27.6,19.4,30.11,West,267,6.0,-999.0,71,0.00,,,0.00,Wunderground v.1.15,2017-02-27 07:55:00,
2017-02-27 03:00:00,27.5,19.0,30.12,West,267,6.0,-999.0,70,0.00,,,0.00,Wunderground v.1.15,2017-02-27 08:00:00,
2017-02-27 03:05:00,27.4,19.2,30.12,West,279,5.0,-999.0,71,0.00,,,0.00,Wunderground v.1.15,2017-02-27 08:05:00,
2017-02-27 03:15:00,27.4,18.6,30.12,West,267,5.0,-999.0,69,0.00,,,0.00,Wunderground v.1.15,2017-02-27 08:15:00,
2017-02-27 03:20:00,27.3,18.5,30.12,West,271,5.0,-999.0,69,0.00,,,0.00,Wunderground v.1.15,2017-02-27 08:20:00,
2017-02-27 03:25:00,27.3,19.1,30.12,West,268,4.0,-999.0,71,0.00,,,0.00,Wunderground v.1.15,2017-02-27 08:25:00,
2017-02-27 03:30:00,27.4,19.2,30.12,West,280,5.0,-999.0,71,0.00,,,0.00,Wunderground v.1.15,2017-02-27 08:30:00,
2017-02-27 03:35:00,27.4,19.2,30.12,West,275,5.0,-999.0,71,0.00,,,0.00,Wunderground v.1.15,2017-02-27 08:35:00,
2017-02-27 03:45:00,27.2,18.4,30.13,West,260,5.0,-999.0,69,0.00,,,0.00,Wunderground v.1.15,2017-02-27 08:45:00,
2017-02-27 03:50:00,27.2,19.0,30.13,West,272,5.0,-999.0,71,0.00,,,0.00,Wunderground v.1.15,2017-02-27 08:50:00,
2017-02-27 03:55:00,27.2,18.7,30.13,West,275,5.0,-999.0,70,0.00,,,0.00,Wunderground v.1.15,2017-02-27 08:55:00,
2017-02-27 04:00:00,27.2,18.4,30.13,West,269,5.0,-999.0,69,0.00,,,0.00,Wunderground v.1.15,2017-02-27 09:00:00,
2017-02-27 04:05:00,27.0,18.2,30.13,West,259,4.0,-999.0,69,0.00,,,0.00,Wunderground v.1.15,2017-02-27 09:05:00,
2017-02-27 04:15:00,27.0,18.8,30.14,West,267,4.0,-999.0,71,0.00,,,0.00,Wunderground v.1.15,2017-02-27 09:15:00,
2017-02-27 04:20:00,27.0,18.5,30.14,West,275,4.0,-999.0,70,0.00,,,0.00,Wunderground v.1.15,2017-02-27 09:20:00,
2017-02-27 04:25:00,27.0,18.5,30.14,WSW,257,4.0,-999.0,70,0.00,,,0.00,Wunderground v.1.15,2017-02-27 09:25:00,
2017-02-27 04:30:00,26.9,18.1,30.14,West,259,4.0,-999.0,69,0.00,,,0.00,Wunderground v.1.15,2017-02-27 09:30:00,
2017-02-27 04:40:00,26.9,18.7,30.14,West,267,3.0,-999.0,71,0.00,,,0.00,Wunderground v.1.15,2017-02-27 09:40:00,
2017-02-27 04:45:00,26.8,18.3,30.15,WSW,257,3.0,-999.0,70,0.00,,,0.00,Wunderground v.1.15,2017-02-27 09:45:00,
2017-02-27 04:50:00,26.8,18.3,30.15,WSW,257,3.0,-999.0,70,0.00,,,0.00,Wunderground v.1.15,2017-02-27 09:50:00,
2017-02-27 04:55:00,26.8,18.0,30.15,West,261,3.0,-999.0,69,0.00,,,0.00,Wunderground v.1.15,2017-02-27 09:55:00,
2017-02-27 05:05:00,26.7,17.9,30.15,WSW,254,3.0,-999.0,69,0.00,,,0.00,Wunderground v.1.15,2017-02-27 10:05:00,
2017-02-27 05:15:00,26.8,19.0,30.16,WSW,256,3.0,-999.0,72,0.00,,,0.00,Wunderground v.1.15,2017-02-27 10:15:00,
2017-02-27 05:20:00,26.8,18.7,30.16,West,261,3.0,-999.0,71,0.00,,,0.00,Wunderground v.1.15,2017-02-27 10:20:00,
2017-02-27 05:30:00,26.8,18.3,30.16,WSW,250,3.0,-999.0,70,0.00,,,0.00,Wunderground v.1.15,2017-02-27 10:30:00,
2017-02-27 05:35:00,26.8,18.7,30.16,West,261,3.0,-999.0,71,0.00,,,0.00,Wunderground v.1.15,2017-02-27 10:35:00,
2017-02-27 05:40:00,26.7,18.6,30.16,West,259,3.0,-999.0,71,0.00,,,0.00,Wunderground v.1.15,2017-02-27 10:40:00,
2017-02-27 05:45:00,26.7,18.6,30.17,West,259,2.0,-999.0,71,0.00,,,0.00,Wunderground v.1.15,2017-02-27 10:45:00,
2017-02-27 05:55:00,26.7,18.2,30.17,WSW,254,2.0,-999.0,70,0.00,,,0.00,Wunderground v.1.15,2017-02-27 10:55:00,
2017-02-27 06:00:00,26.6,18.1,30.17,WSW,255,2.0,-999.0,70,0.00,,,0.00,Wunderground v.1.15,2017-02-27 11:00:00,
2017-02-27 06:05:00,26.7,18.6,30.17,WSW,257,2.0,-999.0,71,0.00,,,0.00,Wunderground v.1.15,2017-02-27 11:05:00,
2017-02-27 06:15:00,26.6,18.8,30.18,WSW,251,2.0,-999.0,72,0.00,,,0.00,Wunderground v.1.15,2017-02-27 11:15:00,
2017-02-27 06:20:00,26.6,18.5,30.18,WSW,252,1.0,-999.0,71,0.00,,,0.00,Wunderground v.1.15,2017-02-27 11:20:00,
2017-02-27 06:25:00,26.2,17.7,30.18,WSW,252,0.0,-999.0,70,0.00,,,0.00,Wunderground v.1.15,2017-02-27 11:25:00,
2017-02-27 06:30:00,26.2,17.7,30.18,WSW,252,1.0,-999.0,70,0.00,,,0.00,Wunderground v.1.15,2017-02-27 11:30:00,
2017-02-27 06:35:00,26.2,18.1,30.18,WSW,252,1.0,-999.0,71,0.00,,,0.00,Wunderground v.1.15,2017-02-27 11:35:00,
2017-02-27 06:45:00,24.1,17.3,30.19,WSW,252,0.0,-999.0,75,0.00,,,0.00,Wunderground v.1.15,2017-02-27 11:45:00,
2017-02-27 06:50:00,23.5,17.0,30.19,WSW,252,0.0,-999.0,76,0.00,,,0.00,Wunderground v.1.15,2017-02-27 11:50:00,
2017-02-27 06:55:00,23.4,16.9,30.19,WSW,252,0.0,-999.0,76,0.00,,,0.00,Wunderground v.1.15,2017-02-27 11:55:00,
2017-02-27 07:00:00,23.2,17.1,30.19,WSW,252,0.0,-999.0,77,0.00,,,0.00,Wunderground v.1.15,2017-02-27 12:00:00,
2017-02-27 07:05:00,23.0,16.9,30.19,WSW,252,0.0,-999.0,77,0.00,,,0.00,Wunderground v.1.15,2017-02-27 12:05:00,
2017-02-27 07:15:00,22.4,16.3,30.19,WSW,252,0.0,-999.0,77,0.00,,,0.00,Wunderground v.1.15,2017-02-27 12:15:00,
2017-02-27 07:20:00,22.2,16.1,30.20,WSW,251,0.0,-999.0,77,0.00,,,0.00,Wunderground v.1.15,2017-02-27 12:20:00,
2017-02-27 07:25:00,22.0,16.5,30.20,WSW,251,0.0,-999.0,79,0.00,,,0.00,Wunderground v.1.15,2017-02-27 12:25:00,
2017-02-27 07:35:00,21.8,16.6,30.20,WSW,250,0.0,-999.0,80,0.00,,,0.00,Wunderground v.1.15,2017-02-27 12:35:00,
2017-02-27 07:40:00,21.6,16.4,30.20,WSW,251,0.0,-999.0,80,0.00,,,0.00,Wunderground v.1.15,2017-02-27 12:40:00,
2017-02-27 07:45:00,21.5,16.3,30.21,WSW,251,0.0,-999.0,80,0.00,,,0.00,Wunderground v.1.15,2017-02-27 12:45:00,
2017-02-27 07:50:00,21.3,16.1,30.21,WSW,251,0.0,-999.0,80,0.00,,,0.00,Wunderground v.1.15,2017-02-27 12:50:00,
2017-02-27 08:00:00,21.2,16.0,30.22,WSW,250,0.0,-999.0,80,0.00,,,0.00,Wunderground v.1.15,2017-02-27 13:00:00,
2017-02-27 08:05:00,21.1,15.9,30.22,WSW,250,0.0,-999.0,80,0.00,,,0.00,Wunderground v.1.15,2017-02-27 13:05:00,
2017-02-27 08:15:00,21.4,16.8,30.22,WSW,251,0.0,-999.0,82,0.00,,,0.00,Wunderground v.1.15,2017-02-27 13:15:00,
2017-02-27 08:20:00,21.5,16.9,30.22,WSW,251,0.0,-999.0,82,0.00,,,0.00,Wunderground v.1.15,2017-02-27 13:20:00,
2017-02-27 08:25:00,21.7,17.1,30.22,WSW,251,0.0,-999.0,82,0.00,,,0.00,Wunderground v.1.15,2017-02-27 13:25:00,
2017-02-27 08:30:00,22.0,17.3,30.22,WSW,250,0.0,-999.0,82,0.00,,,0.00,Wunderground v.1.15,2017-02-27 13:30:00,
2017-02-27 08:35:00,22.3,17.6,30.23,WSW,251,0.0,-999.0,82,0.00,,,0.00,Wunderground v.1.15,2017-02-27 13:35:00,
2017-02-27 08:45:00,23.4,18.4,30.23,SSW,205,0.0,-999.0,81,0.00,,,0.00,Wunderground v.1.15,2017-02-27 13:45:00,
2017-02-27 08:50:00,23.9,18.6,30.23,SSW,205,0.0,-999.0,80,0.00,,,0.00,Wunderground v.1.15,2017-02-27 13:50:00,
2017-02-27 08:55:00,24.7,19.4,30.23,SSW,202,0.0,-999.0,80,0.00,,,0.00,Wunderground v.1.15,2017-02-27 13:55:00,
2017-02-27 09:00:00,25.4,19.5,30.23,SSW,194,0.0,-999.0,78,0.00,,,0.00,Wunderground v.1.15,2017-02-27 14:00:00,
2017-02-27 09:05:00,26.2,19.4,30.23,SSE,150,0.0,-999.0,75,0.00,,,0.00,Wunderground v.1.15,2017-02-27 14:05:00,
2017-02-27 09:15:00,27.3,19.1,30.23,ESE,107,1.0,-999.0,71,0.00,,,0.00,Wunderground v.1.15,2017-02-27 14:15:00,
2017-02-27 09:20:00,27.7,19.2,30.23,ESE,118,1.0,-999.0,70,0.00,,,0.00,Wunderground v.1.15,2017-02-27 14:20:00,
2017-02-27 09:25:00,27.8,19.3,30.23,ESE,114,1.0,-999.0,70,0.00,,,0.00,Wunderground v.1.15,2017-02-27 14:25:00,
2017-02-27 09:30:00,27.9,19.4,30.23,ESE,105,0.0,-999.0,70,0.00,,,0.00,Wunderground v.1.15,2017-02-27 14:30:00,
2017-02-27 09:40:00,28.3,19.1,30.23,SE,124,1.0,-999.0,68,0.00,,,0.00,Wunderground v.1.15,2017-02-27 14:40:00,
2017-02-27 09:45:00,28.5,19.6,30.23,SE,135,1.0,-999.0,69,0.00,,,0.00,Wunderground v.1.15,2017-02-27 14:45:00,